QPF
0.00 0.00 0.00 0.00 0.00 0.00 0.00 0.00 0.00 0.00 0.00 0.00 0.00 0.00 0.00 0.00 0.00 0.00 0.00 0.00 0.01 0.02 0.00 0.02 0.08 0.06 0.12 0.15 0.04 0.04 0.02 0.02 0.06 0.05 0.02 0.05 0.03 0.01 0.00 0.02 0.02 0.02 0.02 0.04
0.00 0.00 0.00 0.00 0.00 0.00 0.00 0.00 0.00 0.00 0.00 0.00 0.00 0.00 0.00 0.00 0.00 0.00 0.00 0.00 0.03 0.01 0.07 0.05 0.06 0.03 0.00 0.00 0.00 0.01 0.00 0.01 0.06 0.10 0.10 0.18 0.14 0.14 0.10 0.07 0.03 0.02 0.02 0.04
0.00 0.00 0.00 0.00 0.00 0.00 0.00 0.00 0.00 0.00 0.00 0.00 0.00 0.04 0.07 0.02 0.01 0.00 0.00 0.01 0.03 0.03 0.04 0.12 0.16 0.10 0.04 0.00 0.00 0.00 0.00 0.00 0.02 0.06 0.12 0.09 0.15 0.22 0.21 0.14 0.09 0.07 0.05 0.06
0.00 0.00 0.00 0.00 0.00 0.00 0.00 0.00 0.00 0.00 0.00 0.00 0.01 0.02 0.06 0.10 0.00 0.02 0.03 0.01 0.02 0.03 0.04 0.04 0.11 0.19 0.19 0.06 0.02 0.01 0.00 0.00 0.00 0.01 0.03 0.01 0.02 0.12 0.22 0.18 0.14 0.14 0.06 0.09
0.00 0.00 0.00 0.00 0.00 0.00 0.00 0.00 0.00 0.00 0.00 0.01 0.03 0.05 0.04 0.03 0.01 0.01 0.04 0.09 0.06 0.08 0.13 0.02 0.07 0.08 0.15 0.17 0.13 0.13 0.13 0.06 0.02 0.03 0.03 0.01 0.00 0.01 0.04 0.15 0.11 0.09 0.08 0.02
0.00 0.00 0.03 0.01 0.00 0.00 0.00 0.00 0.00 0.00 0.02 0.03 0.04 0.12 0.10 0.03 0.01 0.01 0.03 0.04 0.08 0.15 0.15 0.07 0.05 0.11 0.09 0.02 0.03 0.04 0.07 0.06 0.02 0.01 0.00 0.00 0.00 0.00 0.00 0.02 0.04 0.02 0.02 0.00
0.00 0.00 0.05 0.01 0.00 0.00 0.01 0.05 0.00 0.00 0.00 0.00 0.02 0.05 0.03 0.01 0.02 0.00 0.01 0.01 0.02 0.02 0.03 0.01 0.02 0.05 0.06 0.04 0.04 0.01 0.02 0.01 0.01 0.00 0.00 0.00 0.00 0.01 0.00 0.00 0.00 0.00 0.00 0.00
0.03 0.07 0.08 0.00 0.03 0.03 0.03 0.00 0.00 0.00 0.00 0.00 0.00 0.01 0.00 0.01 0.01 0.01 0.00 0.00 0.01 0.00 0.01 0.00 0.00 0.02 0.02 0.03 0.01 0.01 0.01 0.01 0.01 0.00 0.00 0.00 0.00 0.00 0.00 0.00 0.00 0.00 0.00 0.00
0.04 0.08 0.07 0.00 0.02 0.00 0.00 0.00 0.00 0.00 0.00 0.00 0.00 0.01 0.01 0.01 0.01 0.01 0.01 0.02 0.01 0.00 0.00 0.00 0.00 0.00 0.01 0.01 0.01 0.01 0.01 0.01 0.01 0.01 0.00 0.00 0.00 0.00 0.00 0.00 0.00 0.00 0.00 0.00
0.02 0.03 0.00 0.00 0.00 0.00 0.00 0.00 0.00 0.00 0.00 0.00 0.00 0.02 0.04 0.01 0.02 0.00 0.00 0.00 0.00 0.00 0.00 0.00 0.00 0.00 0.00 0.00 0.01 0.01 0.01 0.01 0.01 0.01 0.00 0.00 0.00 0.00 0.00 0.00 0.00 0.00 0.00 0.00
0.00 0.00 0.00 0.00 0.00 0.00 0.00 0.00 0.00 0.01 0.00 0.00 0.00 0.01 0.02 0.03 0.02 0.01 0.01 0.00 0.00 0.00 0.00 0.00 0.00 0.00 0.00 0.00 0.00 0.01 0.01 0.01 0.01 0.00 0.00 0.00 0.00 0.00 0.00 0.00 0.00 0.00 0.00 0.00
0.02 0.00 0.01 0.00 0.00 0.00 0.00 0.00 0.00 0.00 0.00 0.00 0.00 0.01 0.02 0.04 0.05 0.03 0.02 0.00 0.00 0.00 0.00 0.01 0.01 0.01 0.00 0.00 0.01 0.01 0.00 0.00 0.00 0.00 0.00 0.00 0.00 0.00 0.00 0.00 0.00 0.00 0.00 0.00
0.00 0.00 0.00 0.00 0.00 0.00 0.00 0.00 0.01 0.00 0.00 0.00 0.00 0.00 0.01 0.02 0.03 0.04 0.03 0.02 0.01 0.00 0.00 0.00 0.00 0.00 0.00 0.00 0.00 0.00 0.00 0.00 0.00 0.00 0.00 0.00 0.00 0.00 0.00 0.00 0.00 0.00 0.00 0.00
0.00 0.00 0.00 0.00 0.00 0.00 0.00 0.00 0.00 0.00 0.00 0.00 0.00 0.00 0.00 0.00 0.00 0.00 0.00 0.00 0.00 0.00 0.00 0.00 0.00 0.00 0.00 0.00 0.00 0.00 0.00 0.00 0.00 0.00 0.00 0.00 0.00 0.00 0.00 0.00 0.00 0.00 0.00 0.00
0.00 0.00 0.00 0.00 0.00 0.00 0.00 0.00 0.00 0.01 0.01 0.00 0.00 0.00 0.00 0.00 0.00 0.00 0.00 0.00 0.00 0.00 0.00 0.00 0.00 0.00 0.00 0.00 0.00 0.00 0.00 0.00 0.00 0.00 0.00 0.00 0.00 0.00 0.00 0.00 0.00 0.00 0.00 0.00
0.00 0.00 0.00 0.00 0.00 0.00 0.00 0.00 0.00 0.00 0.00 0.00 0.00 0.01 0.00 0.00 0.00 0.00 0.00 0.00 0.00 0.00 0.00 0.00 0.00 0.00 0.00 0.00 0.00 0.00 0.00 0.00 0.00 0.00 0.00 0.00 0.00 0.00 0.00 0.00 0.00 0.00 0.00 0.00
0.00 0.00 0.00 0.00 0.00 0.00 0.00 0.00 0.00 0.00 0.00 0.00 0.00 0.00 0.00 0.01 0.01 0.03 0.04 0.03 0.00 0.00 0.00 0.00 0.00 0.00 0.00 0.00 0.00 0.00 0.00 0.00 0.00 0.00 0.00 0.00 0.00 0.00 0.00 0.00 0.00 0.00 0.00 0.00
0.00 0.00 0.00 0.00 0.00 0.00 0.00 0.00 0.00 0.00 0.00 0.00 0.00 0.00 0.00 0.01 0.02 0.01 0.02 0.04 0.04 0.01 0.00 0.00 0.00 0.00 0.00 0.00 0.00 0.00 0.00 0.00 0.00 0.00 0.00 0.00 0.00 0.00 0.00 0.00 0.00 0.00 0.00 0.00
0.00 0.00 0.00 0.00 0.00 0.00 0.00 0.00 0.00 0.00 0.00 0.00 0.00 0.00 0.00 0.00 0.00 0.00 0.00 0.04 0.07 0.08 0.05 0.03 0.00 0.00 0.00 0.00 0.00 0.00 0.00 0.00 0.00 0.00 0.00 0.00 0.00 0.00 0.00 0.00 0.00 0.00 0.00 0.00
0.00 0.00 0.00 0.00 0.00 0.00 0.00 0.00 0.00 0.00 0.00 0.00 0.00 0.00 0.00 0.00 0.00 0.00 0.00 0.00 0.02 0.04 0.03 0.04 0.05 0.03 0.01 0.00 0.00 0.00 0.00 0.00 0.00 0.00 0.00 0.00 0.00 0.00 0.00 0.00 0.00 0.00 0.00 0.00
0.00 0.00 0.00 0.00 0.00 0.00 0.00 0.00 0.00 0.00 0.00 0.00 0.00 0.00 0.00 0.00 0.00 0.00 0.00 0.00 0.00 0.00 0.00 0.00 0.00 0.03 0.06 0.04 0.01 0.00 0.00 0.00 0.00 0.00 0.00 0.00 0.00 0.00 0.00 0.00 0.00 0.00 0.00 0.00
0.00 0.00 0.00 0.00 0.00 0.00 0.00 0.00 0.00 0.00 0.00 0.00 0.00 0.00 0.00 0.00 0.00 0.00 0.00 0.00 0.00 0.00 0.00 0.00 0.00 0.01 0.03 0.03 0.03 0.00 0.00 0.00 0.00 0.00 0.00 0.00 0.00 0.00 0.00 0.00 0.00 0.00 0.00 0.00
0.00 0.00 0.00 0.00 0.00 0.00 0.00 0.00 0.00 0.00 0.00 0.00 0.00 0.00 0.00 0.00 0.00 0.00 0.00 0.00 0.00 0.00 0.00 0.00 0.00 0.00 0.00 0.00 0.00 0.00 0.01 0.00 0.00 0.00 0.00 0.00 0.00 0.00 0.00 0.00 0.00 0.00 0.00 0.00
0.00 0.00 0.00 0.00 0.00 0.00 0.00 0.00 0.00 0.00 0.00 0.00 0.00 0.00 0.00 0.00 0.00 0.00 0.00 0.00 0.00 0.00 0.00 0.00 0.00 0.00 0.00 0.00 0.01 0.02 0.03 0.04 0.03 0.02 0.01 0.00 0.00 0.00 0.00 0.00 0.00 0.00 0.00 0.00
0.00 0.00 0.00 0.00 0.00 0.00 0.00 0.00 0.00 0.00 0.00 0.00 0.00 0.00 0.00 0.00 0.00 0.00 0.00 0.00 0.00 0.00 0.00 0.00 0.00 0.00 0.00 0.00 0.00 0.02 0.04 0.06 0.05 0.04 0.03 0.01 0.00 0.00 0.00 0.00 0.00 0.00 0.00 0.00
0.00 0.00 0.00 0.00 0.00 0.00 0.00 0.00 0.00 0.00 0.00 0.00 0.00 0.00 0.00 0.00 0.00 0.00 0.00 0.00 0.00 0.00 0.00 0.00 0.00 0.00 0.00 0.00 0.01 0.01 0.05 0.07 0.07 0.06 0.04 0.03 0.02 0.00 0.00 0.00 0.00 0.01 0.00 0.00
0.00 0.00 0.00 0.00 0.00 0.00 0.00 0.00 0.00 0.00 0.00 0.00 0.00 0.00 0.00 0.00 0.00 0.00 0.00 0.00 0.00 0.00 0.00 0.00 0.00 0.00 0.00 0.00 0.00 0.00 0.03 0.05 0.05 0.06 0.06 0.05 0.04 0.02 0.01 0.01 0.01 0.01 0.01 0.01
MSLP
1005.00 1004.47 1004.04 1003.28 1002.34 1001.48 1000.91 1000.48 1000.40 1000.44 1001.64 1001.63 1002.29 1002.78 1003.06 1002.91 1003.28 1004.50 1005.59 1006.77 1007.89 1009.22 1010.10 1011.42 1012.08 1013.42 1013.66 1014.40 1015.26 1015.51 1015.96 1016.16 1016.56 1016.32 1016.32 1016.65 1016.66 1016.72 1017.10 1017.44 1017.91 1018.14 1018.36 1018.76
1005.11 1004.88 1004.11 1003.34 1002.89 1002.32 1001.42 1001.05 1001.18 1001.62 1002.27 1002.95 1004.69 1004.13 1004.74 1004.95 1005.20 1005.22 1006.18 1007.12 1008.34 1009.43 1010.56 1011.45 1012.35 1012.88 1013.48 1014.21 1014.66 1015.35 1015.91 1016.08 1016.14 1016.32 1016.50 1016.71 1016.84 1016.99 1017.34 1017.72 1017.93 1018.13 1018.44 1018.75
1005.29 1005.22 1004.85 1004.74 1003.66 1003.28 1002.33 1002.08 1002.04 1002.64 1004.41 1004.22 1005.60 1007.40 1008.28 1008.01 1007.55 1007.50 1008.14 1008.61 1009.10 1009.89 1010.81 1011.56 1011.98 1012.57 1013.26 1013.90 1014.59 1015.46 1015.93 1016.20 1016.35 1016.70 1016.98 1016.99 1017.09 1017.36 1017.66 1018.02 1018.35 1018.61 1019.04 1019.38
1006.40 1006.06 1005.96 1005.14 1004.80 1004.58 1004.35 1003.55 1004.13 1004.43 1005.77 1007.42 1008.27 1009.21 1009.23 1009.41 1010.23 1010.61 1010.31 1011.20 1011.22 1011.39 1011.99 1012.17 1012.51 1013.07 1013.47 1014.04 1014.75 1015.48 1015.98 1016.11 1016.62 1017.02 1017.25 1017.46 1017.45 1017.64 1018.28 1018.57 1018.95 1019.23 1019.84 1020.20
1006.95 1006.59 1006.52 1006.53 1007.36 1007.16 1006.95 1005.65 1006.70 1006.75 1007.22 1008.52 1009.89 1011.53 1012.12 1012.06 1012.14 1012.90 1012.77 1013.24 1013.69 1013.66 1013.94 1013.83 1013.97 1013.70 1014.07 1014.60 1014.96 1015.32 1015.80 1016.21 1016.50 1016.89 1017.23 1017.75 1018.12 1018.52 1018.99 1019.10 1019.53 1020.14 1020.38 1020.90
1008.19 1007.84 1007.94 1009.23 1009.11 1008.34 1007.78 1007.53 1008.17 1008.46 1008.81 1009.51 1010.07 1011.77 1013.61 1012.61 1014.05 1014.05 1014.35 1014.60 1015.09 1015.13 1015.14 1015.12 1015.12 1014.64 1014.97 1015.52 1015.60 1015.90 1016.05 1016.34 1016.60 1016.98 1017.50 1018.14 1018.74 1019.23 1019.32 1019.63 1020.16 1020.61 1021.30 1021.22
1009.23 1009.42 1010.10 1010.77 1009.95 1009.29 1009.36 1010.51 1010.18 1010.14 1010.64 1011.19 1011.81 1013.25 1015.67 1015.85 1015.70 1015.55 1016.23 1016.58 1016.61 1016.40 1016.41 1016.50 1016.50 1015.96 1016.24 1016.82 1016.68 1017.00 1017.02 1017.17 1017.34 1017.69 1018.02 1018.57 1019.11 1019.39 1019.78 1020.10 1020.69 1021.18 1021.59 1021.96
1011.94 1012.35 1012.56 1011.49 1010.58 1010.80 1010.63 1011.09 1011.06 1011.12 1011.76 1012.78 1014.31 1015.00 1016.28 1017.04 1016.72 1017.20 1017.82 1018.01 1017.72 1017.39 1017.82 1017.78 1017.55 1017.20 1017.53 1018.06 1018.10 1017.89 1017.98 1018.20 1018.13 1018.45 1018.60 1019.00 1019.52 1020.13 1020.34 1020.70 1021.04 1021.48 1021.76 1021.88
1013.28 1012.92 1013.96 1012.46 1012.14 1011.20 1010.67 1010.61 1011.20 1012.11 1013.46 1014.96 1016.31 1017.08 1017.36 1017.58 1018.04 1018.34 1018.63 1018.83 1018.79 1018.56 1018.76 1018.94 1018.94 1018.82 1018.89 1019.20 1018.93 1018.82 1018.82 1018.86 1018.70 1018.87 1019.10 1019.67 1019.98 1020.56 1021.10 1021.06 1021.60 1021.76 1021.78 1021.87
1012.74 1014.00 1013.88 1011.11 1011.70 1011.75 1011.16 1011.63 1012.56 1013.68 1015.15 1016.12 1017.08 1017.90 1018.52 1018.97 1019.43 1019.58 1019.67 1019.68 1019.64 1019.40 1019.38 1019.69 1019.76 1019.82 1019.98 1020.04 1019.63 1019.75 1019.68 1019.67 1019.54 1019.68 1020.07 1020.65 1020.64 1020.91 1021.54 1022.29 1022.38 1022.16 1021.68 1021.76
1011.24 1012.77 1013.10 1012.80 1012.44 1012.08 1012.26 1012.64 1013.61 1015.09 1016.16 1017.09 1017.59 1018.21 1018.95 1019.72 1020.08 1020.32 1020.32 1020.25 1020.22 1020.14 1020.13 1020.41 1020.42 1020.44 1020.46 1020.44 1020.36 1020.58 1020.62 1020.44 1020.28 1020.30 1020.71 1021.60 1022.61 1023.20 1023.19 1024.18 1024.15 1023.21 1023.00 1022.74
1011.16 1011.52 1012.09 1012.66 1012.63 1012.10 1012.55 1013.45 1014.29 1015.35 1016.48 1017.40 1017.98 1018.61 1018.76 1019.81 1020.34 1020.64 1020.97 1021.00 1020.95 1020.90 1020.88 1020.87 1020.85 1020.70 1020.70 1020.64 1020.77 1020.86 1020.92 1020.95 1020.62 1020.48 1020.51 1021.14 1022.21 1023.66 1024.64 1024.87 1024.86 1024.49 1023.82 1023.38
1011.16 1011.70 1012.47 1012.56 1012.28 1012.12 1012.57 1013.38 1014.30 1015.32 1016.50 1017.47 1018.34 1018.94 1019.10 1019.62 1019.87 1019.73 1020.31 1020.83 1021.07 1021.07 1021.20 1021.37 1021.21 1021.04 1021.01 1021.01 1021.10 1021.16 1021.07 1021.12 1020.62 1020.72 1020.61 1021.03 1021.67 1022.63 1023.83 1024.98 1025.16 1024.91 1024.63 1024.37
1010.93 1011.37 1011.79 1011.92 1012.18 1012.52 1013.07 1013.57 1014.27 1015.22 1016.31 1017.27 1017.92 1018.47 1018.96 1019.46 1020.18 1020.12 1020.16 1020.56 1020.94 1020.88 1021.10 1021.73 1021.38 1020.99 1020.91 1021.06 1020.99 1021.10 1021.04 1020.91 1020.82 1020.75 1020.48 1021.02 1021.14 1021.72 1022.34 1023.49 1023.91 1024.51 1025.08 1025.08
1011.15 1011.38 1011.21 1011.65 1012.11 1012.54 1013.04 1013.56 1013.73 1014.84 1015.66 1016.08 1016.84 1017.71 1018.30 1018.78 1019.24 1019.46 1019.84 1020.07 1020.06 1020.44 1020.76 1021.35 1021.42 1021.10 1020.58 1021.06 1020.71 1020.88 1021.17 1021.29 1021.11 1020.55 1020.90 1021.12 1021.17 1021.43 1021.69 1022.00 1022.38 1023.41 1024.41 1025.24
1011.15 1011.46 1011.54 1011.69 1012.29 1012.62 1012.87 1013.02 1013.38 1013.88 1014.70 1015.51 1016.06 1016.62 1017.15 1017.86 1018.28 1018.74 1019.10 1019.51 1019.69 1019.58 1019.90 1020.46 1020.84 1020.70 1020.70 1020.88 1021.11 1020.85 1021.14 1021.33 1021.67 1021.47 1021.15 1021.30 1021.31 1021.51 1021.34 1021.47 1021.91 1022.62 1022.98 1023.34
1010.96 1011.52 1012.04 1012.14 1012.36 1012.76 1013.07 1013.20 1013.28 1013.48 1013.68 1014.57 1015.42 1016.03 1016.64 1017.00 1017.30 1017.94 1018.43 1018.86 1019.26 1019.31 1019.40 1019.86 1020.10 1020.23 1020.48 1020.82 1021.14 1020.51 1021.21 1021.62 1021.48 1021.58 1021.15 1021.35 1021.50 1021.56 1021.62 1021.47 1021.66 1022.07 1022.55 1023.85
1010.77 1011.39 1012.09 1012.36 1012.68 1012.96 1013.33 1013.64 1013.89 1014.05 1014.34 1014.70 1015.15 1015.46 1015.92 1016.34 1016.85 1017.11 1017.43 1017.90 1018.51 1018.71 1018.79 1019.15 1019.67 1019.89 1020.15 1020.39 1020.66 1020.55 1020.92 1021.14 1021.23 1021.59 1021.39 1021.44 1021.45 1021.62 1021.69 1021.69 1021.60 1022.12 1022.41 1023.37
1011.04 1011.49 1011.99 1012.34 1012.71 1013.09 1013.58 1014.07 1014.14 1014.48 1015.04 1015.42 1015.54 1015.72 1015.84 1016.12 1016.34 1016.58 1016.83 1017.18 1017.74 1018.23 1018.35 1018.68 1018.95 1019.32 1019.79 1020.20 1020.43 1020.46 1020.31 1020.42 1020.80 1021.19 1021.37 1021.37 1021.62 1021.62 1021.60 1021.71 1021.79 1021.66 1021.89 1022.67
1011.12 1011.62 1012.12 1012.48 1012.84 1013.04 1013.36 1013.68 1013.89 1014.22 1014.72 1015.19 1015.66 1015.84 1016.06 1016.23 1016.40 1016.94 1017.07 1017.28 1017.30 1017.34 1017.56 1018.03 1018.35 1018.77 1019.22 1019.37 1019.81 1019.92 1019.51 1019.62 1019.94 1020.26 1020.74 1021.02 1020.90 1021.10 1021.18 1021.26 1021.24 1021.16 1021.33 1021.96
1010.94 1011.49 1011.93 1012.34 1012.76 1013.17 1013.52 1013.79 1014.02 1014.34 1014.68 1015.32 1015.72 1016.13 1016.44 1016.50 1016.66 1016.74 1016.86 1017.06 1017.67 1017.52 1017.28 1017.54 1017.73 1018.06 1018.68 1019.05 1019.34 1019.53 1019.56 1019.26 1019.22 1019.34 1019.67 1019.95 1020.22 1020.37 1020.47 1020.68 1020.63 1020.85 1020.98 1021.34
1010.56 1011.08 1011.61 1012.08 1012.47 1012.88 1013.18 1013.65 1014.07 1014.41 1014.76 1015.36 1015.94 1016.36 1016.66 1016.82 1016.88 1016.93 1016.99 1017.30 1018.16 1018.06 1017.86 1017.78 1018.04 1018.37 1018.51 1018.55 1018.76 1018.94 1018.55 1018.82 1018.90 1018.97 1019.00 1019.30 1019.51 1019.82 1020.02 1020.08 1020.06 1020.19 1020.44 1020.95
1010.07 1010.53 1011.02 1011.48 1011.80 1012.18 1012.80 1013.55 1014.18 1014.53 1015.00 1015.61 1016.05 1016.41 1016.62 1016.50 1016.44 1016.50 1017.24 1017.88 1017.82 1018.52 1018.32 1018.43 1018.90 1018.96 1018.91 1018.62 1018.45 1018.30 1018.43 1018.52 1018.50 1018.69 1018.82 1018.84 1019.19 1019.63 1019.82 1019.96 1019.97 1019.81 1019.89 1020.22
1009.33 1009.92 1010.48 1011.00 1011.42 1012.05 1012.80 1013.68 1014.30 1014.71 1015.24 1015.69 1016.03 1016.34 1016.50 1016.44 1016.55 1016.70 1017.77 1018.26 1018.52 1018.60 1018.76 1018.93 1018.95 1018.97 1018.96 1018.69 1018.38 1018.34 1018.45 1018.46 1018.62 1018.62 1018.83 1019.16 1019.47 1019.68 1019.78 1019.64 1019.46 1019.65 1019.77 1019.89
1008.83 1009.34 1010.00 1010.62 1011.36 1012.05 1012.93 1013.88 1014.47 1014.81 1015.40 1015.80 1015.97 1016.40 1016.48 1016.32 1016.41 1016.66 1017.18 1017.74 1018.08 1018.43 1018.46 1018.88 1018.83 1018.77 1018.55 1018.52 1018.28 1018.19 1018.24 1018.48 1018.57 1018.67 1018.84 1018.83 1019.25 1019.43 1019.58 1019.65 1019.67 1019.66 1019.79 1020.08
1008.34 1008.86 1009.56 1010.30 1011.04 1011.80 1012.89 1013.79 1014.31 1014.44 1014.94 1015.38 1015.71 1016.01 1016.04 1016.32 1016.62 1016.89 1016.98 1017.14 1017.26 1017.52 1017.92 1018.03 1018.08 1018.10 1018.13 1018.15 1018.14 1018.16 1018.11 1018.12 1018.31 1018.47 1018.72 1018.93 1019.08 1019.16 1019.15 1019.10 1019.31 1019.35 1019.43 1019.73
1008.36 1009.13 1009.93 1010.43 1011.16 1012.20 1012.78 1013.42 1014.02 1014.03 1014.68 1014.65 1014.94 1015.15 1015.26 1015.75 1016.17 1016.39 1016.50 1016.45 1016.61 1016.62 1016.67 1016.96 1017.60 1017.57 1017.47 1017.54 1017.72 1017.89 1018.05 1018.11 1018.22 1018.40 1018.60 1018.61 1018.50 1018.42 1018.34 1018.23 1018.48 1018.90 1018.97 1019.18
Thickness
5714 5727 5732 5735 5744 5761 5766 5781 5775 5798 5789 5795 5800 5806 5809 5819 5820 5813 5809 5805 5799 5790 5786 5782 5781 5769 5759 5769 5766 5769 5765 5765 5765 5772 5776 5776 5778 5779 5777 5777 5774 5775 5776 5776
5705 5723 5731 5733 5744 5750 5767 5779 5780 5785 5780 5793 5772 5793 5795 5795 5795 5801 5800 5799 5793 5788 5779 5776 5770 5772 5772 5766 5764 5766 5764 5763 5767 5769 5768 5767 5769 5770 5769 5769 5770 5772 5771 5772
5693 5717 5720 5703 5736 5741 5758 5769 5776 5764 5759 5772 5770 5758 5741 5756 5768 5774 5777 5781 5784 5783 5777 5773 5775 5773 5770 5767 5763 5759 5759 5760 5760 5759 5757 5760 5760 5759 5758 5759 5759 5759 5760 5761
5685 5699 5671 5716 5734 5730 5734 5755 5751 5754 5746 5743 5741 5738 5729 5727 5741 5744 5758 5753 5760 5766 5767 5769 5769 5767 5766 5764 5761 5757 5753 5755 5752 5749 5749 5749 5751 5751 5748 5748 5746 5745 5746 5743
5677 5686 5700 5705 5701 5702 5699 5721 5724 5729 5739 5737 5726 5717 5712 5721 5736 5734 5736 5734 5734 5740 5741 5746 5749 5757 5758 5754 5754 5753 5749 5748 5747 5746 5744 5741 5739 5739 5738 5738 5734 5730 5732 5728
5679 5673 5662 5669 5688 5706 5713 5692 5710 5720 5723 5723 5722 5701 5702 5700 5715 5716 5716 5721 5720 5723 5726 5729 5732 5741 5740 5737 5740 5740 5743 5741 5742 5740 5737 5733 5731 5729 5730 5728 5722 5721 5716 5718
5675 5666 5663 5661 5678 5693 5662 5664 5686 5700 5702 5704 5699 5692 5674 5683 5689 5697 5696 5696 5702 5707 5710 5715 5717 5724 5724 5720 5723 5724 5729 5730 5731 5729 5729 5726 5724 5724 5721 5720 5715 5711 5708 5706
5642 5625 5623 5661 5673 5655 5667 5669 5675 5670 5687 5686 5678 5677 5670 5669 5675 5677 5674 5678 5685 5690 5692 5696 5703 5708 5707 5704 5708 5713 5714 5715 5717 5717 5719 5718 5715 5711 5712 5710 5707 5704 5702 5703
5626 5634 5622 5644 5642 5656 5669 5669 5672 5672 5668 5656 5646 5647 5651 5653 5656 5658 5660 5664 5667 5673 5675 5677 5681 5686 5688 5689 5695 5699 5702 5703 5707 5708 5708 5707 5705 5702 5699 5703 5699 5697 5698 5698
5634 5622 5618 5651 5658 5657 5665 5661 5658 5654 5641 5638 5632 5631 5631 5632 5635 5639 5644 5648 5652 5658 5662 5663 5666 5670 5671 5672 5680 5682 5685 5688 5692 5691 5691 5689 5693 5695 5691 5686 5689 5692 5697 5696
5646 5627 5630 5638 5645 5648 5650 5650 5643 5633 5627 5623 5623 5622 5622 5619 5621 5625 5630 5634 5639 5642 5645 5647 5651 5654 5656 5658 5662 5662 5665 5670 5673 5675 5674 5669 5665 5665 5668 5661 5664 5676 5677 5678
5629 5643 5636 5632 5639 5648 5641 5635 5632 5624 5617 5615 5615 5613 5616 5610 5609 5612 5614 5618 5622 5626 5629 5633 5636 5640 5643 5646 5647 5648 5650 5652 5656 5660 5663 5662 5660 5651 5645 5645 5647 5652 5660 5665
5633 5640 5631 5636 5642 5646 5641 5636 5630 5622 5614 5606 5604 5602 5604 5604 5606 5611 5611 5609 5610 5613 5616 5617 5622 5625 5628 5631 5632 5633 5637 5638 5644 5645 5650 5649 5648 5645 5640 5630 5631 5636 5641 5644
5645 5641 5633 5637 5632 5637 5634 5631 5628 5620 5612 5605 5601 5599 5599 5599 5595 5599 5601 5601 5599 5603 5606 5604 5609 5614 5616 5617 5620 5620 5622 5625 5628 5631 5637 5635 5637 5634 5635 5628 5628 5626 5621 5621
5636 5638 5641 5639 5636 5632 5631 5627 5625 5616 5612 5610 5608 5601 5597 5595 5594 5596 5596 5595 5596 5595 5593 5589 5589 5595 5604 5604 5609 5609 5607 5607 5612 5620 5618 5617 5618 5618 5622 5621 5623 5615 5607 5603
5633 5632 5633 5632 5628 5627 5627 5627 5623 5620 5616 5610 5608 5605 5601 5596 5595 5593 5593 5590 5588 5590 5589 5584 5581 5587 5589 5589 5588 5593 5592 5590 5589 5592 5598 5597 5598 5600 5604 5602 5601 5600 5598 5601
5627 5621 5620 5621 5622 5621 5619 5621 5622 5622 5621 5613 5607 5603 5600 5597 5596 5591 5589 5586 5583 5584 5584 5580 5580 5581 5581 5577 5573 5582 5574 5571 5574 5574 5579 5577 5579 5580 5579 5584 5581 5583 5580 5569
5635 5630 5624 5622 5618 5617 5615 5614 5613 5612 5610 5609 5606 5604 5601 5597 5591 5591 5591 5589 5582 5581 5582 5579 5574 5573 5569 5567 5563 5564 5561 5560 5561 5557 5561 5560 5562 5561 5562 5562 5566 5561 5564 5553
5634 5629 5625 5622 5620 5616 5611 5607 5608 5606 5601 5599 5597 5596 5596 5593 5592 5590 5589 5585 5580 5575 5575 5573 5570 5567 5562 5557 5555 5553 5554 5553 5550 5547 5546 5546 5543 5544 5545 5543 5543 5548 5548 5542
5632 5629 5625 5621 5619 5617 5614 5613 5611 5607 5602 5597 5592 5589 5586 5585 5584 5579 5578 5573 5574 5574 5573 5568 5564 5559 5554 5555 5548 5548 5551 5549 5546 5541 5536 5532 5535 5533 5532 5532 5534 5535 5536 5533
5633 5629 5625 5620 5617 5615 5612 5609 5606 5602 5599 5593 5587 5582 5578 5578 5576 5574 5571 5568 5564 5566 5567 5563 5560 5557 5549 5543 5540 5538 5536 5538 5537 5537 5534 5532 5529 5527 5527 5524 5525 5523 5523 5522
5634 5629 5623 5619 5615 5611 5610 5606 5601 5597 5592 5586 5580 5575 5570 5566 5565 5564 5562 5557 5550 5548 5550 5548 5547 5543 5541 5539 5534 5532 5535 5530 5527 5525 5525 5522 5519 5516 5514 5513 5513 5513 5511 5507
5634 5630 5626 5620 5616 5613 5608 5600 5593 5590 5583 5576 5571 5566 5562 5561 5560 5556 5547 5542 5541 5533 5535 5534 5528 5526 5524 5527 5527 5526 5522 5519 5518 5515 5512 5511 5507 5501 5498 5497 5496 5498 5497 5496
5636 5631 5625 5621 5615 5607 5596 5588 5583 5579 5573 5569 5564 5559 5555 5551 5548 5547 5533 5527 5523 5522 5520 5518 5516 5514 5512 5514 5515 5513 5509 5506 5502 5500 5496 5492 5489 5486 5483 5485 5486 5484 5482 5482
5635 5630 5623 5615 5604 5595 5587 5579 5571 5567 5561 5557 5555 5548 5545 5544 5538 5535 5530 5522 5516 5513 5513 5505 5504 5504 5505 5503 5502 5500 5497 5492 5490 5488 5485 5483 5477 5474 5471 5470 5469 5469 5468 5467
5632 5626 5619 5608 5599 5590 5579 5569 5562 5561 5555 5550 5546 5541 5538 5532 5526 5522 5520 5517 5515 5510 5506 5505 5503 5499 5496 5492 5490 5487 5485 5483 5479 5476 5472 5468 5466 5464 5462 5461 5459 5458 5458 5456
5624 5614 5605 5598 5590 5577 5571 5562 5556 5554 5548 5549 5544 5540 5535 5527 5522 5517 5515 5515 5512 5510 5508 5503 5495 5491 5489 5486 5482 5478 5475 5472 5468 5465 5461 5459 5458 5459 5459 5459 5455 5451 5450 5448